Location: Hamburg
(53.5500°N, 10.0000°E)
Time: 15:48:44
(UTC+02:00)

Vanguard 1 Rocket - Visible Passes

Search period start: 24 August 2016 00:00
Search period end: 03 September 2016 00:00
Orbit: 652 x 4225 km, 34.3° (Epoch: 22 August)

Date Brightness Start Highest point End Pass type
(mag) Time Alt. Az. Time Alt. Az. Time Alt. Az.
24 Aug 9.4 22:55:05 10° SW 22:57:46 13° SSW 22:57:46 13° SSW visible
25 Aug 9.3 21:42:47 10° SSW 21:47:41 15° S 21:50:42 12° SSE visible
26 Aug 9.4 22:57:05 10° SW 23:00:53 14° SSW 23:00:53 14° SSW visible
27 Aug 9.3 21:44:19 10° SW 21:50:26 18° S 21:53:46 13° SSE visible
28 Aug 9.4 22:59:20 10° SW 23:03:41 15° SSW 23:03:54 15° SSW visible
29 Aug 9.3 21:46:06 10° SW 21:53:08 20° S 21:56:43 14° SSE visible
30 Aug 9.5 23:01:45 10° SW 23:06:16 15° SSW 23:06:49 15° SSW visible
31 Aug 9.4 21:48:03 10° WSW 21:55:46 21° SSW 21:59:37 15° SSE visible
01 Sep 9.7 20:34:27 10° SW 20:44:54 25° S 20:51:29 10° SE visible
01 Sep 9.6 23:04:21 10° WSW 23:08:46 14° SSW 23:09:41 14° SSW visible
02 Sep 9.5 21:50:08 10° WSW 21:58:20 21° SSW 22:02:29 14° SSE visible
